Weather History for Pierre, SD

Change the Weather History Date:

Sunday, July 14, 2013

  Actual Average Record
Temperature  
Mean Temperature 74 °F 76 °F  
Max Temperature 80 °F 89 °F 104 °F (1988)
Min Temperature 68 °F 62 °F 45 °F (1967)
Degree Days  
Heating Degree Days 0 0  
Month to date heating degree days 0 0  
Since 1 June heating degree days 60 53  
Since 1 July heating degree days 0 0  
Cooling Degree Days 9 11  
Month to date cooling degree days 135 135  
Year to date cooling degree days 276 301  
Since 1 June cooling degree days 254 269  
Growing Degree Days 24 (Base 50)    
Moisture  
Dew Point 69 °F    
Average Humidity 84    
Maximum Humidity 94    
Minimum Humidity 74    
Precipitation  
Precipitation 0.18 in 0.09 in 0.98 in (1969)
Month to date precipitation 2.09 1.18  
Year to date precipitation 13.91 11.95  
Sea Level Pressure  
Sea Level Pressure 30.04 in    
Wind  
Wind Speed 13 mph (NNE)    
Max Wind Speed 26 mph    
Max Gust Speed 31 mph    
Visibility 10 miles    
Events Rain , Thunderstorm    
T = Trace of Precipitation, MM = Missing Value Source: NWS Daily Summary

Daily Weather History Graph

Daily Weather History Graph

Search for Another Location

Airport:

Trip Planner

Search our weather history database for the weather conditions in past years. The results will help you decide how hot, cold, wet, or windy it might be!

Date:

Astronomy

Jul. 14, 2013 Rise Set
Actual Time 6:10 AM CDT 9:23 PM CDT
Civil Twilight 5:34 AM CDT 9:58 PM CDT
Nautical Twilight 4:49 AM CDT 10:44 PM CDT
Astronomical Twilight 3:52 AM CDT 11:40 PM CDT
Moon 12:46 PM CDT (7/14) No Moon Set
Length of Visible Light 16h 23m
Length of Day
15h 13m
Waxing Crescent, 35% of the Moon is Illuminated
Jul 14
Waxing Crescent
Jul 15
First Quarter
Jul 22
Full
Jul 29
Last Quarter
Aug 6
New

Hourly Weather History & Observations

Time (CDT) Temp. Dew Point Humidity Pressure Visibility Wind Dir Wind Speed Gust Speed Precip Events Conditions
12:53 AM 77.0 °F 75.0 °F 94% 29.86 in 8.0 mi East 5.8 mph - N/A   Clear
1:53 AM 75.0 °F 73.9 °F 96% 29.86 in 6.0 mi East 4.6 mph - N/A   Clear
2:53 AM 75.9 °F 73.9 °F 94% 29.89 in 7.0 mi NNW 11.5 mph - N/A   Mostly Cloudy
3:17 AM 77.0 °F 73.4 °F 89% 29.94 in 7.0 mi North 13.8 mph 20.7 mph N/A   Overcast
3:53 AM 73.0 °F 69.1 °F 87% 29.89 in 10.0 mi NNE 13.8 mph - N/A   Overcast
4:16 AM 71.6 °F 66.2 °F 83% 29.95 in 10.0 mi NNE 11.5 mph - N/A   Mostly Cloudy
4:43 AM 71.6 °F 66.2 °F 83% 29.97 in 10.0 mi North 24.2 mph 31.1 mph 0.00 in Rain Light Rain
4:53 AM 71.1 °F 66.0 °F 84% 29.92 in 10.0 mi North 21.9 mph 29.9 mph 0.00 in Rain Light Rain
5:18 AM 69.8 °F 64.4 °F 83% 29.97 in 10.0 mi North 17.3 mph 26.5 mph 0.00 in Thunderstorm Thunderstorm
5:32 AM 68.0 °F 66.2 °F 94% 29.95 in 2.5 mi NE 9.2 mph - 0.14 in Rain Heavy Rain
5:44 AM 69.8 °F 66.2 °F 88% 29.94 in 7.0 mi ENE 10.4 mph - 0.18 in Rain Light Rain
5:53 AM 69.1 °F 66.9 °F 93% 29.90 in 10.0 mi North 10.4 mph - 0.18 in   Mostly Cloudy
6:53 AM 68.0 °F 66.0 °F 93% 29.96 in 10.0 mi NNW 10.4 mph - N/A   Clear
7:39 AM 69.8 °F 66.2 °F 88% 30.05 in 10.0 mi NNW 11.5 mph - N/A   Mostly Cloudy
7:53 AM 69.1 °F 66.9 °F 93% 30.01 in 10.0 mi North 10.4 mph - N/A   Overcast
8:14 AM 69.8 °F 68.0 °F 94% 30.04 in 10.0 mi North 12.7 mph - N/A   Mostly Cloudy
8:44 AM 71.6 °F 68.0 °F 88% 30.04 in 10.0 mi NNE 11.5 mph - N/A   Mostly Cloudy
8:51 AM 71.6 °F 68.0 °F 88% 30.05 in 10.0 mi NNE 11.5 mph - N/A   Mostly Cloudy
8:53 AM 71.1 °F 68.0 °F 90% 30.01 in 10.0 mi NNE 11.5 mph - N/A   Mostly Cloudy
9:53 AM 73.0 °F 69.1 °F 87% 30.02 in 10.0 mi North 13.8 mph - N/A   Overcast
10:26 AM 71.6 °F 68.0 °F 88% 30.06 in 10.0 mi North 10.4 mph 21.9 mph N/A   Scattered Clouds
10:53 AM 73.0 °F 68.0 °F 84% 30.02 in 10.0 mi North 15.0 mph - N/A   Mostly Cloudy
11:51 AM 73.4 °F 68.0 °F 83% 30.08 in 10.0 mi North 17.3 mph - N/A   Mostly Cloudy
11:53 AM 73.0 °F 68.0 °F 84% 30.04 in 10.0 mi North 16.1 mph - N/A   Mostly Cloudy
12:48 PM 73.4 °F 68.0 °F 83% 30.08 in 10.0 mi North 18.4 mph 27.6 mph N/A   Overcast
12:53 PM 73.0 °F 68.0 °F 84% 30.05 in 10.0 mi North 20.7 mph 27.6 mph N/A   Overcast
1:07 PM 75.2 °F 68.0 °F 78% 30.08 in 10.0 mi North 21.9 mph 29.9 mph N/A   Overcast
1:28 PM 75.2 °F 69.8 °F 83% 30.10 in 10.0 mi North 20.7 mph - N/A   Mostly Cloudy
1:44 PM 78.8 °F 69.8 °F 74% 30.09 in 10.0 mi North 19.6 mph 24.2 mph N/A   Scattered Clouds
1:53 PM 75.9 °F 69.1 °F 79% 30.05 in 10.0 mi NNE 16.1 mph - N/A   Scattered Clouds
2:02 PM 77.0 °F 69.8 °F 78% 30.09 in 10.0 mi NNE 13.8 mph 20.7 mph N/A   Mostly Cloudy
2:16 PM 78.8 °F 69.8 °F 74% 30.09 in 10.0 mi NNE 12.7 mph - N/A   Scattered Clouds
2:24 PM 78.8 °F 69.8 °F 74% 30.08 in 10.0 mi NNE 16.1 mph - N/A   Mostly Cloudy
2:39 PM 78.8 °F 69.8 °F 74% 30.08 in 10.0 mi NNE 12.7 mph 20.7 mph N/A   Mostly Cloudy
2:51 PM 78.8 °F 69.8 °F 74% 30.09 in 10.0 mi NNE 11.5 mph - N/A   Overcast
2:53 PM 78.1 °F 70.0 °F 76% 30.05 in 10.0 mi NNE 12.7 mph - N/A   Overcast
3:02 PM 78.8 °F 69.8 °F 74% 30.09 in 10.0 mi NE 12.7 mph - N/A   Overcast
3:14 PM 78.8 °F 69.8 °F 74% 30.09 in 10.0 mi NNE 13.8 mph - N/A   Overcast
3:44 PM 78.8 °F 69.8 °F 74% 30.09 in 10.0 mi NNE 11.5 mph - N/A   Overcast
3:53 PM 78.1 °F 69.1 °F 74% 30.06 in 10.0 mi North 16.1 mph - N/A   Overcast
4:04 PM 78.8 °F 69.8 °F 74% 30.10 in 10.0 mi NNE 13.8 mph - N/A   Overcast
4:34 PM 78.8 °F 69.8 °F 74% 30.09 in 10.0 mi North 12.7 mph - N/A   Overcast
4:53 PM 79.0 °F 70.0 °F 74% 30.05 in 10.0 mi North 13.8 mph 20.7 mph N/A   Overcast
5:03 PM 78.8 °F 69.8 °F 74% 30.09 in 10.0 mi NNW 13.8 mph - N/A   Overcast
5:53 PM 75.9 °F 69.1 °F 79% 30.05 in 10.0 mi North 16.1 mph - N/A   Overcast
6:00 PM 75.2 °F 69.8 °F 83% 30.08 in 10.0 mi North 17.3 mph 21.9 mph N/A Thunderstorm Overcast
6:15 PM 75.2 °F 69.8 °F 83% 30.09 in 10.0 mi NE 17.3 mph - N/A   Overcast
6:53 PM 77.0 °F 69.1 °F 76% 30.06 in 10.0 mi NE 19.6 mph 25.3 mph N/A   Overcast
7:39 PM 73.4 °F 68.0 °F 83% 30.11 in 10.0 mi NE 15.0 mph 23.0 mph N/A   Mostly Cloudy
7:49 PM 73.4 °F 68.0 °F 83% 30.11 in 10.0 mi NE 15.0 mph - N/A   Mostly Cloudy
7:53 PM 73.9 °F 68.0 °F 82% 30.08 in 10.0 mi NE 16.1 mph - N/A   Mostly Cloudy
8:53 PM 73.0 °F 68.0 °F 84% 30.09 in 8.0 mi ENE 10.4 mph - N/A   Overcast
9:08 PM 73.4 °F 68.0 °F 83% 30.13 in 8.0 mi ENE 12.7 mph - N/A   Overcast
9:35 PM 71.6 °F 68.0 °F 88% 30.13 in 9.0 mi ENE 13.8 mph 17.3 mph N/A   Overcast
9:53 PM 72.0 °F 68.0 °F 87% 30.11 in 10.0 mi ENE 10.4 mph - N/A   Overcast
10:53 PM 71.1 °F 68.0 °F 90% 30.12 in 10.0 mi ENE 11.5 mph - N/A   Overcast
11:53 PM 70.0 °F 66.9 °F 90% 30.11 in 10.0 mi ENE 9.2 mph - N/A   Overcast